PulseSat

PulseSat

COSMOS 2434 (721)

Last updated on Jan. 18, 2019, 3 a.m. UTC

1 32393U 07065A   19017.66186731  .00000012  00000-0  00000+0 0  9996
2 32393  64.7918 284.1571 0002984  89.7862  79.7714  2.13102954 86105
UTC
Height (km)
Latitude
Longitude
Inclination
Orbital Period

Next 30 passes for location: Hong Kong

Rise time Rise Azimuth (degrees) Set time Set Azimuth (degrees) Duration Max altitude (degrees)

No matching passes for this satellites

PulseSat

PulseSat is the new satellites software and hardware trackering solution by Pulsely.
Satellite Two Line Element Set source: US Air Force Space Command

Download PulseSat for iOS
© 2017 Pulsely Limited